Find Starlink 3972

NORAD ID: 52669 Int'l Des: 2022-053 Owner: SPXS Country: US Constellation: starlink operational
LEOCIRCULAR

实时位置

正在加载3D地球...

关于 Starlink 3972

正在加载描述...

即将过境

Passes for default location (London). Set your location on the main map for personalized predictions.

高度历史

Loading altitude history...

两行轨道根数

1 52669U 22053P 26121.70536088 .00000708 00000-0 62573-4 0 9991
2 52669 53.2166 276.1222 0001242 91.8162 268.2972 15.08841325219040
Epoch: May 1, 2026 • Age: 12 hours

当前状态

高度 542.3 km
速度 7.59 km/s
星下点 -8.84°S, 166.9°E
发射日期 May 18, 2022
运行时间 3.9 years
类型 internet

技术详情

分类 Payload
质量 297.00 kg
干质量 275.00 kg
总质量 297.00 kg
长度 0.20 m
直径 2.80 m
跨度 9.00 m
形状 Box + pan
制造商 SPXS
平台类型 Starlink
阶段状态 In Orbit
所有者/国家 SPXS/US

Most Searched